Change the Weather History Date:

Monday, January 14, 2013

  Actual Average Record
Temperature  
Mean Temperature 41 °F -  
Max Temperature 56 °F 60 °F 68 °F (1999)
Min Temperature 26 °F 36 °F 21 °F (2008)
Degree Days  
Heating Degree Days 24    
Moisture  
Dew Point 25 °F    
Average Humidity 56    
Maximum Humidity 100    
Minimum Humidity 21    
Precipitation  
Precipitation 0.00 in - - ()
Sea Level Pressure  
Sea Level Pressure 30.28 in    
Wind  
Wind Speed 4 mph ()    
Max Wind Speed 9 mph    
Max Gust Speed -    
Visibility 6.0 miles    
Events      
Averages and records for this station are not official NWS values.
T = Trace of Precipitation, MM = Missing Value Source: Averaged Metar Reports

Daily Weather History Graph

Daily Weather History Graph

Search for Another Location

Airport or City:

Trip Planner

Search our weather history database for the weather conditions in past years. The results will help you decide how hot, cold, wet, or windy it might be!

Date:

Astronomy

Jan. 14, 2013 Rise Set
Actual Time 7:30 AM AST 5:49 PM AST
Civil Twilight 7:04 AM AST 6:15 PM AST
Nautical Twilight 6:34 AM AST 6:45 PM AST
Astronomical Twilight 6:05 AM AST 7:14 PM AST
Moon 9:05 AM AST (1/14) 8:56 PM AST (1/14)
Length of Visible Light 11h 11m
Length of Day
10h 18m
Waxing Crescent, 9% of the Moon is Illuminated
Jan 14
Waxing Crescent
Jan 19
First Quarter
Jan 27
Full
Feb 3
Last Quarter
Feb 10
New

Hourly Weather History & Observations

Time (AST) Temp. Windchill Dew Point Humidity Pressure Visibility Wind Dir Wind Speed Gust Speed Precip Events Conditions
12:00 AM 38 °F - 25 °F 47% 30.27 in 6 mi West 6.9 mph - -  
12:00 AM 39.2 °F 34.2 °F 24.8 °F 56% 30.21 in - West 6.9 mph - N/A   Clear
1:00 AM 35.6 °F 31.7 °F 24.8 °F 65% 30.21 in - WSW 4.6 mph - N/A   Clear
2:00 AM 33.8 °F 26.4 °F 26.6 °F 75% 30.21 in - West 9.2 mph - N/A   Clear
3:00 AM 33.8 °F 29.6 °F 24.8 °F 70% 30.24 in - West 4.6 mph - N/A   Clear
4:00 AM 32.0 °F - 24.8 °F 75% 30.24 in - West 2.3 mph - N/A   Clear
5:00 AM 30.2 °F 23.4 °F 24.8 °F 80% 30.24 in - WNW 6.9 mph - N/A   Clear
6:00 AM 29 °F - 27 °F 87% 30.31 in 6 mi WNW 2.3 mph - -  
6:00 AM 28.4 °F - 26.6 °F 93% 30.24 in - WNW 2.3 mph - N/A   Clear
7:00 AM 28.4 °F - 26.6 °F 93% 30.27 in - WNW 2.3 mph - N/A   Clear
8:00 AM 26.6 °F - 26.6 °F 100% 30.27 in - NW 2.3 mph - N/A   Clear
9:00 AM 29 °F - 25 °F 78% 30.38 in 6 mi Calm Calm - -  
9:00 AM 28.4 °F - 24.8 °F 86% 30.30 in - Calm Calm - N/A   Clear
10:00 AM 35.6 °F - 24.8 °F 65% 30.30 in - Calm Calm - N/A   Clear
11:00 AM 41.0 °F 36.4 °F 24.8 °F 53% 30.33 in - East 6.9 mph - N/A   Clear
12:00 PM 45 °F - 27 °F 36% 30.35 in 6 mi ESE 4.6 mph - -  
12:00 PM 44.6 °F 42.2 °F 26.6 °F 49% 30.30 in - ESE 4.6 mph - N/A   Clear
1:00 PM 48.2 °F - 24.8 °F 40% 30.27 in - East 4.6 mph - N/A   Clear
2:00 PM 51.8 °F - 24.8 °F 35% 30.27 in - East 2.3 mph - N/A   Clear
3:00 PM 53 °F - 25 °F 21% 30.30 in 6 mi Calm Calm - -  
3:00 PM 53.6 °F - 24.8 °F 33% 30.24 in - Calm Calm - N/A   Clear
4:00 PM 53.6 °F - 24.8 °F 33% 30.27 in - ENE 4.6 mph - N/A   Clear
5:00 PM 51.8 °F - 24.8 °F 35% 30.27 in - NE 4.6 mph - N/A   Clear
6:00 PM 51 °F - 25 °F 23% 30.33 in 6 mi Calm Calm - -  
6:00 PM 51.8 °F - 24.8 °F 35% 30.27 in - Calm Calm - N/A   Clear
7:00 PM 48.2 °F - 24.8 °F 40% 30.27 in - WNW 4.6 mph - N/A   Clear
8:00 PM 44.6 °F 42.2 °F 24.8 °F 46% 30.27 in - West 4.6 mph - N/A   Clear
9:00 PM 42 °F - 23 °F 34% 30.37 in 6 mi WNW 4.6 mph - -  
9:00 PM 42.8 °F 40.1 °F 23.0 °F 46% 30.30 in - WNW 4.6 mph - N/A   Clear
10:00 PM 41.0 °F 36.4 °F 23.0 °F 49% 30.27 in - West 6.9 mph - N/A   Clear
11:00 PM 39.2 °F 34.2 °F 23.0 °F 52% 30.27 in - West 6.9 mph - N/A   Clear